Flag for U.S.A. Weather past 2 weeks in Canton, Ohio, U.S.A.

Now
43 °F

Overcast.


Feels Like: 38 °F
Forecast: 35 / 62 °F
Wind: 9 mph from North

Location: Akron-Canton Regional Airport

Current Time: Apr 28, 2015 at 12:14:59 AM

Latest Report: Apr 27, 2015 at 10:51 PM


Visibility: 10 mi

Pressure: 30.06 "Hg

Humidity: 71%

Dew point: 34 °F

Location of CantonLocation

Historic Weather in Canton — Graph

°F

Canton temperature yesterday

Maximum temperature yesterday: 45 °F (at 2:51 PM)
Minimum temperature yesterday: 34 °F (at 4:51 AM)
Average temperature yesterday: 41 °F

Past Weeks' High & Low Weather Summary

 TemperatureHumidityPressure
High80 °F (Apr 13, 3:51 PM)90% (Apr 17, 4:51 AM)30.34 "Hg (Apr 17, 4:51 AM)
Low29 °F (Apr 24, 3:51 AM)18% (Apr 15, 3:51 PM)29.41 "Hg (Apr 20, 11:51 AM)
Average52 °F55%29.95 "Hg
* Reported Apr 12 10:51 PM — Apr 27 10:51 PM, Canton, Weather by CustomWeather, © 2015

Note: Actual official high and low records may vary slightly from our data, if they occured in-between our weather recording intervals... More about our weather records

Advertising

Canton weather history for previous 24 hours

 ConditionsComfort  
Time TempWeatherWind HumidityBarometerVisibility
10:51 PM
Mon, Apr 27
43 °FOvercast.9 mph71%30.06 "Hg10 mi
9:51 PM43 °FOvercast.7 mph68%30.06 "Hg10 mi
8:51 PM42 °FPartly sunny.8 mph71%30.04 "Hg10 mi
7:51 PM43 °FOvercast.12 mph68%30.04 "Hg10 mi
6:51 PM44 °FOvercast.7 mph68%30.03 "Hg9 mi
5:51 PM43 °FOvercast.14 mph68%30.02 "Hg10 mi
4:51 PM44 °FOvercast.14 mph65%30.00 "Hg10 mi
3:51 PM43 °FOvercast.18 mph71%29.99 "Hg10 mi
2:51 PM45 °FLight rain. Overcast.18 mph65%29.99 "Hg10 mi
1:51 PM43 °FOvercast.15 mph71%29.98 "Hg10 mi
12:51 PM42 °FOvercast.18 mph73%29.97 "Hg10 mi
11:51 AM41 °FLight rain. Mostly cloudy.15 mph82%29.98 "Hg8 mi
10:51 AM41 °FLight rain. Overcast.14 mph82%29.95 "Hg8 mi
9:51 AM43 °FLight rain. Overcast.14 mph76%29.91 "Hg10 mi
8:51 AM44 °FBroken clouds.14 mph71%29.90 "Hg10 mi
7:51 AM41 °FScattered clouds.10 mph76%29.89 "Hg10 mi
6:51 AM38 °FPassing clouds.10 mph79%29.88 "Hg10 mi
5:51 AM38 °FOvercast.8 mph79%29.87 "Hg10 mi
4:51 AM34 °FPassing clouds.7 mph82%29.87 "Hg10 mi
3:51 AM35 °FPassing clouds.7 mph82%29.88 "Hg10 mi
2:51 AM35 °FClear.6 mph75%29.88 "Hg10 mi
1:51 AM36 °FClear.7 mph75%29.88 "Hg10 mi
12:51 AM36 °FClear.7 mph73%29.89 "Hg10 mi
Weather by CustomWeather, © 2015

See weather overviewHow to use our weather pages